contact:dominique.lefevre@mio.osupytheas.fr, maurice.libes@osupytheas.fr, didier.mallarino@osupytheas.fr
Project:EMSO http://www.emso-fr.org/EMSO-France
Depth: 2436.0 m
Title:EMSO Ligure Ouest : Data MII capteur OXYGEN
DateTime,Latitude,Longitude,Optode-Type,Optode_Serial,Oxygen,Saturation_Oxygen,Temperature
DateTime,Latitude,Longitude,Optode-Type,Optode_Serial,µmol.l-1,%,degC
2017-12-09T00:00:41,42.805,6.029,4330,1995,195.873,59.903,13.290
2017-12-09T00:03:41,42.805,6.029,4330,1995,196.036,59.949,13.287
2017-12-09T00:06:41,42.805,6.029,4330,1995,196.054,59.955,13.288
2017-12-09T00:09:41,42.805,6.029,4330,1995,196.185,59.994,13.286
2017-12-09T00:12:41,42.805,6.029,4330,1995,196.224,60.006,13.286
2017-12-09T00:15:41,42.805,6.029,4330,1995,196.336,60.041,13.287
2017-12-09T00:18:41,42.805,6.029,4330,1995,196.180,59.994,13.287
2017-12-09T00:21:41,42.805,6.029,4330,1995,196.101,59.969,13.287
2017-12-09T00:24:41,42.805,6.029,4330,1995,196.309,60.032,13.287
2017-12-09T00:27:41,42.805,6.029,4330,1995,196.490,60.088,13.287
2017-12-09T00:30:41,42.805,6.029,4330,1995,196.554,60.107,13.287
2017-12-09T00:33:41,42.805,6.029,4330,1995,196.378,60.054,13.287
2017-12-09T00:36:41,42.805,6.029,4330,1995,196.352,60.046,13.287
2017-12-09T00:39:41,42.805,6.029,4330,1995,196.526,60.098,13.286
2017-12-09T00:42:41,42.805,6.029,4330,1995,196.330,60.038,13.286
2017-12-09T00:45:41,42.805,6.029,4330,1995,196.330,60.039,13.287
2017-12-09T00:48:41,42.805,6.029,4330,1995,196.342,60.042,13.286
2017-12-09T00:51:41,42.805,6.029,4330,1995,196.255,60.016,13.287
2017-12-09T00:54:41,42.805,6.029,4330,1995,196.239,60.011,13.287
2017-12-09T00:57:41,42.805,6.029,4330,1995,196.134,59.978,13.286
2017-12-09T01:00:41,42.805,6.029,4330,1995,196.068,59.958,13.286
2017-12-09T01:03:41,42.805,6.029,4330,1995,196.025,59.946,13.287
2017-12-09T01:06:41,42.805,6.029,4330,1995,196.005,59.940,13.287
2017-12-09T01:09:41,42.805,6.029,4330,1995,196.054,59.954,13.286
2017-12-09T01:12:41,42.805,6.029,4330,1995,196.156,59.985,13.286
2017-12-09T01:15:41,42.805,6.029,4330,1995,196.235,60.009,13.286
2017-12-09T01:18:41,42.805,6.029,4330,1995,196.250,60.013,13.286
2017-12-09T01:21:41,42.805,6.029,4330,1995,196.335,60.040,13.286
2017-12-09T01:24:41,42.805,6.029,4330,1995,196.358,60.047,13.287
2017-12-09T01:27:41,42.805,6.029,4330,1995,196.430,60.070,13.287
2017-12-09T01:30:41,42.805,6.029,4330,1995,196.483,60.085,13.286
2017-12-09T01:33:41,42.805,6.029,4330,1995,196.624,60.128,13.286
2017-12-09T01:36:41,42.805,6.029,4330,1995,196.599,60.122,13.287
2017-12-09T01:39:41,42.805,6.029,4330,1995,196.692,60.149,13.286
2017-12-09T01:42:41,42.805,6.029,4330,1995,196.677,60.145,13.287
2017-12-09T01:45:41,42.805,6.029,4330,1995,196.729,60.159,13.286
2017-12-09T01:48:41,42.805,6.029,4330,1995,196.819,60.188,13.286
2017-12-09T01:51:41,42.805,6.029,4330,1995,196.597,60.119,13.286
2017-12-09T01:54:41,42.805,6.029,4330,1995,196.537,60.101,13.286
2017-12-09T01:57:41,42.805,6.029,4330,1995,196.669,60.142,13.286
2017-12-09T02:00:41,42.805,6.029,4330,1995,196.658,60.138,13.286
2017-12-09T02:03:41,42.805,6.029,4330,1995,196.663,60.139,13.286
2017-12-09T02:06:41,42.805,6.029,4330,1995,196.656,60.138,13.286
2017-12-09T02:09:41,42.805,6.029,4330,1995,196.532,60.099,13.286
2017-12-09T02:12:41,42.805,6.029,4330,1995,196.537,60.101,13.286
2017-12-09T02:15:41,42.805,6.029,4330,1995,196.522,60.096,13.286
2017-12-09T02:18:41,42.805,6.029,4330,1995,196.700,60.151,13.286
2017-12-09T02:21:41,42.805,6.029,4330,1995,196.501,60.091,13.287
2017-12-09T02:24:41,42.805,6.029,4330,1995,196.402,60.060,13.286
2017-12-09T02:27:41,42.805,6.029,4330,1995,196.533,60.100,13.286
2017-12-09T02:30:41,42.805,6.029,4330,1995,196.607,60.123,13.286
2017-12-09T02:33:41,42.805,6.029,4330,1995,196.687,60.147,13.286
2017-12-09T02:36:41,42.805,6.029,4330,1995,196.840,60.194,13.286
2017-12-09T02:39:41,42.805,6.029,4330,1995,196.837,60.192,13.286
2017-12-09T02:42:41,42.805,6.029,4330,1995,196.896,60.212,13.287
2017-12-09T02:45:41,42.805,6.029,4330,1995,196.938,60.223,13.286
2017-12-09T02:48:41,42.805,6.029,4330,1995,196.964,60.233,13.287
2017-12-09T02:51:41,42.805,6.029,4330,1995,196.986,60.239,13.286
2017-12-09T02:54:41,42.805,6.029,4330,1995,196.917,60.218,13.286
2017-12-09T02:57:41,42.805,6.029,4330,1995,196.837,60.193,13.286
2017-12-09T03:00:41,42.805,6.029,4330,1995,196.933,60.224,13.287
2017-12-09T03:03:41,42.805,6.029,4330,1995,196.848,60.196,13.286
2017-12-09T03:06:41,42.805,6.029,4330,1995,196.989,60.239,13.286
2017-12-09T03:09:41,42.805,6.029,4330,1995,197.055,60.259,13.286
2017-12-09T03:12:41,42.805,6.029,4330,1995,197.112,60.277,13.286
2017-12-09T03:15:41,42.805,6.029,4330,1995,197.186,60.300,13.286
2017-12-09T03:18:41,42.805,6.029,4330,1995,197.280,60.328,13.286
2017-12-09T03:21:41,42.805,6.029,4330,1995,197.237,60.315,13.286
2017-12-09T03:24:41,42.805,6.029,4330,1995,197.270,60.325,13.286
2017-12-09T03:27:41,42.805,6.029,4330,1995,197.339,60.347,13.286
2017-12-09T03:30:41,42.805,6.029,4330,1995,197.390,60.363,13.287
2017-12-09T03:33:41,42.805,6.029,4330,1995,197.361,60.353,13.286
2017-12-09T03:36:41,42.805,6.029,4330,1995,197.317,60.340,13.286
2017-12-09T03:39:41,42.805,6.029,4330,1995,197.297,60.334,13.286
2017-12-09T03:42:41,42.805,6.029,4330,1995,197.201,60.305,13.287
2017-12-09T03:45:41,42.805,6.029,4330,1995,197.157,60.291,13.286
2017-12-09T03:48:41,42.805,6.029,4330,1995,197.089,60.270,13.286
2017-12-09T03:51:41,42.805,6.029,4330,1995,197.038,60.255,13.287
2017-12-09T03:54:41,42.805,6.029,4330,1995,197.001,60.243,13.286
2017-12-09T03:57:41,42.805,6.029,4330,1995,197.003,60.244,13.286
2017-12-09T04:00:41,42.805,6.029,4330,1995,197.015,60.248,13.286
2017-12-09T04:03:41,42.805,6.029,4330,1995,196.913,60.217,13.287
2017-12-09T04:06:41,42.805,6.029,4330,1995,196.900,60.213,13.287
2017-12-09T04:09:41,42.805,6.029,4330,1995,196.958,60.231,13.287
2017-12-09T04:12:41,42.805,6.029,4330,1995,196.899,60.213,13.287
2017-12-09T04:15:41,42.805,6.029,4330,1995,196.906,60.214,13.286
2017-12-09T04:18:41,42.805,6.029,4330,1995,196.938,60.224,13.287
2017-12-09T04:21:41,42.805,6.029,4330,1995,196.991,60.240,13.286
2017-12-09T04:24:41,42.805,6.029,4330,1995,196.917,60.218,13.287
2017-12-09T04:27:41,42.805,6.029,4330,1995,196.848,60.197,13.287
2017-12-09T04:30:41,42.805,6.029,4330,1995,196.873,60.205,13.287
2017-12-09T04:33:41,42.805,6.029,4330,1995,196.912,60.217,13.287
2017-12-09T04:36:41,42.805,6.029,4330,1995,196.843,60.195,13.287
2017-12-09T04:39:41,42.805,6.029,4330,1995,196.884,60.208,13.287
2017-12-09T04:42:41,42.805,6.029,4330,1995,196.917,60.217,13.286
2017-12-09T04:45:41,42.805,6.029,4330,1995,196.854,60.198,13.286
2017-12-09T04:48:41,42.805,6.029,4330,1995,196.878,60.206,13.286
2017-12-09T04:51:41,42.805,6.029,4330,1995,196.854,60.198,13.286
2017-12-09T04:54:41,42.805,6.029,4330,1995,196.887,60.209,13.287
2017-12-09T04:57:41,42.805,6.029,4330,1995,196.956,60.229,13.286
2017-12-09T05:00:41,42.805,6.029,4330,1995,196.859,60.201,13.287
2017-12-09T05:03:41,42.805,6.029,4330,1995,196.984,60.238,13.286
2017-12-09T05:06:41,42.805,6.029,4330,1995,197.063,60.262,13.286
2017-12-09T05:09:41,42.805,6.029,4330,1995,196.929,60.221,13.286
2017-12-09T05:12:41,42.805,6.029,4330,1995,196.704,60.153,13.287
2017-12-09T05:15:41,42.805,6.029,4330,1995,196.679,60.145,13.286
2017-12-09T05:18:41,42.805,6.029,4330,1995,196.673,60.143,13.287
2017-12-09T05:21:41,42.805,6.029,4330,1995,196.683,60.146,13.287
2017-12-09T05:24:41,42.805,6.029,4330,1995,196.657,60.138,13.286
2017-12-09T05:27:41,42.805,6.029,4330,1995,196.782,60.176,13.286
2017-12-09T05:30:41,42.805,6.029,4330,1995,196.781,60.176,13.286
2017-12-09T05:33:41,42.805,6.029,4330,1995,196.768,60.172,13.286
2017-12-09T05:36:41,42.805,6.029,4330,1995,196.599,60.120,13.286
2017-12-09T05:39:41,42.805,6.029,4330,1995,196.575,60.114,13.287
2017-12-09T05:42:41,42.805,6.029,4330,1995,196.554,60.106,13.286
2017-12-09T05:45:41,42.805,6.029,4330,1995,196.511,60.094,13.287
2017-12-09T05:48:41,42.805,6.029,4330,1995,196.507,60.092,13.286
2017-12-09T05:51:41,42.805,6.029,4330,1995,196.698,60.150,13.286
2017-12-09T05:54:41,42.805,6.029,4330,1995,196.589,60.118,13.287
2017-12-09T05:57:41,42.805,6.029,4330,1995,196.706,60.153,13.286
2017-12-09T06:00:41,42.805,6.029,4330,1995,196.778,60.176,13.287
2017-12-09T06:03:41,42.805,6.029,4330,1995,196.733,60.162,13.287
2017-12-09T06:06:41,42.805,6.029,4330,1995,196.775,60.174,13.286
2017-12-09T06:09:41,42.805,6.029,4330,1995,196.688,60.147,13.286
2017-12-09T06:12:41,42.805,6.029,4330,1995,196.488,60.087,13.286
2017-12-09T06:15:41,42.805,6.029,4330,1995,196.425,60.068,13.287
2017-12-09T06:18:41,42.805,6.029,4330,1995,196.367,60.049,13.286
2017-12-09T06:21:41,42.805,6.029,4330,1995,196.356,60.046,13.286
2017-12-09T06:24:41,42.805,6.029,4330,1995,196.543,60.103,13.286
2017-12-09T06:27:41,42.805,6.029,4330,1995,196.498,60.089,13.286
2017-12-09T06:30:41,42.805,6.029,4330,1995,196.686,60.147,13.286
2017-12-09T06:33:41,42.805,6.029,4330,1995,196.475,60.083,13.287
2017-12-09T06:36:41,42.805,6.029,4330,1995,196.370,60.051,13.287
2017-12-09T06:39:41,42.805,6.029,4330,1995,196.273,60.021,13.286
2017-12-09T06:42:41,42.805,6.029,4330,1995,196.317,60.034,13.286
2017-12-09T06:45:41,42.805,6.029,4330,1995,196.403,60.061,13.286
2017-12-09T06:48:41,42.805,6.029,4330,1995,196.444,60.073,13.286
2017-12-09T06:51:41,42.805,6.029,4330,1995,196.307,60.032,13.287
2017-12-09T06:54:41,42.805,6.029,4330,1995,196.252,60.014,13.286
2017-12-09T06:57:41,42.805,6.029,4330,1995,196.097,59.967,13.286
2017-12-09T07:00:41,42.805,6.029,4330,1995,196.053,59.953,13.286
2017-12-09T07:03:41,42.805,6.029,4330,1995,196.091,59.967,13.287
2017-12-09T07:06:41,42.805,6.029,4330,1995,196.300,60.030,13.287
2017-12-09T07:09:41,42.805,6.029,4330,1995,196.152,59.984,13.287
2017-12-09T07:12:41,42.805,6.029,4330,1995,196.382,60.054,13.286
2017-12-09T07:15:41,42.805,6.029,4330,1995,196.385,60.055,13.286
2017-12-09T07:18:41,42.805,6.029,4330,1995,196.368,60.050,13.286
2017-12-09T07:21:41,42.805,6.029,4330,1995,196.308,60.031,13.286
2017-12-09T07:24:41,42.805,6.029,4330,1995,196.248,60.013,13.286
2017-12-09T07:27:41,42.805,6.029,4330,1995,196.135,59.978,13.286
2017-12-09T07:30:41,42.805,6.029,4330,1995,196.107,59.970,13.286
2017-12-09T07:33:41,42.805,6.029,4330,1995,196.203,59.999,13.286
2017-12-09T07:36:41,42.805,6.029,4330,1995,196.169,59.990,13.287
2017-12-09T07:39:41,42.805,6.029,4330,1995,196.063,59.957,13.287
2017-12-09T07:42:41,42.805,6.029,4330,1995,196.096,59.967,13.287
2017-12-09T07:45:41,42.805,6.029,4330,1995,195.928,59.916,13.287
2017-12-09T07:48:41,42.805,6.029,4330,1995,196.159,59.986,13.286
2017-12-09T07:51:41,42.805,6.029,4330,1995,196.168,59.989,13.287
2017-12-09T07:54:41,42.805,6.029,4330,1995,196.048,59.952,13.287
2017-12-09T07:57:41,42.805,6.029,4330,1995,196.071,59.960,13.287
2017-12-09T08:00:41,42.805,6.029,4330,1995,196.396,60.059,13.287
2017-12-09T08:03:41,42.805,6.029,4330,1995,196.403,60.060,13.286
2017-12-09T08:06:41,42.805,6.029,4330,1995,196.322,60.036,13.287
2017-12-09T08:09:41,42.805,6.029,4330,1995,196.233,60.009,13.287
2017-12-09T08:12:41,42.805,6.029,4330,1995,196.027,59.945,13.286
2017-12-09T08:15:41,42.805,6.029,4330,1995,195.872,59.898,13.286
2017-12-09T08:18:41,42.805,6.029,4330,1995,195.917,59.912,13.287
2017-12-09T08:21:41,42.805,6.029,4330,1995,195.931,59.917,13.287
2017-12-09T08:24:41,42.805,6.029,4330,1995,195.797,59.876,13.287
2017-12-09T08:27:41,42.805,6.029,4330,1995,195.761,59.864,13.286
2017-12-09T08:30:41,42.805,6.029,4330,1995,195.852,59.892,13.287
2017-12-09T08:33:41,42.805,6.029,4330,1995,195.870,59.898,13.287
2017-12-09T08:36:41,42.805,6.029,4330,1995,195.819,59.882,13.286
2017-12-09T08:39:41,42.805,6.029,4330,1995,195.710,59.849,13.287
2017-12-09T08:42:41,42.805,6.029,4330,1995,195.759,59.863,13.286
2017-12-09T08:45:41,42.805,6.029,4330,1995,195.804,59.879,13.288
2017-12-09T08:48:41,42.805,6.029,4330,1995,195.814,59.880,13.286
2017-12-09T08:51:41,42.805,6.029,4330,1995,195.981,59.931,13.286
2017-12-09T08:54:41,42.805,6.029,4330,1995,195.907,59.909,13.287
2017-12-09T08:57:41,42.805,6.029,4330,1995,196.010,59.941,13.286
2017-12-09T09:00:41,42.805,6.029,4330,1995,195.897,59.906,13.286
2017-12-09T09:03:41,42.805,6.029,4330,1995,195.839,59.888,13.286
2017-12-09T09:06:41,42.805,6.029,4330,1995,195.642,59.827,13.286
2017-12-09T09:09:41,42.805,6.029,4330,1995,195.738,59.856,13.286
2017-12-09T09:12:41,42.805,6.029,4330,1995,195.740,59.858,13.286
2017-12-09T09:15:41,42.805,6.029,4330,1995,195.585,59.810,13.286
2017-12-09T09:18:41,42.805,6.029,4330,1995,195.666,59.835,13.286
2017-12-09T09:21:41,42.805,6.029,4330,1995,195.736,59.857,13.286
2017-12-09T09:24:41,42.805,6.029,4330,1995,195.600,59.815,13.286
2017-12-09T09:27:41,42.805,6.029,4330,1995,195.605,59.817,13.287
2017-12-09T09:30:41,42.805,6.029,4330,1995,195.603,59.816,13.286
2017-12-09T09:33:41,42.805,6.029,4330,1995,195.585,59.811,13.286
2017-12-09T09:36:41,42.805,6.029,4330,1995,195.607,59.817,13.286
2017-12-09T09:39:41,42.805,6.029,4330,1995,195.527,59.793,13.286
2017-12-09T09:42:41,42.805,6.029,4330,1995,195.510,59.788,13.287
2017-12-09T09:45:41,42.805,6.029,4330,1995,195.704,59.847,13.287
2017-12-09T09:48:41,42.805,6.029,4330,1995,195.638,59.826,13.286
2017-12-09T09:51:41,42.805,6.029,4330,1995,195.624,59.822,13.287
2017-12-09T09:54:41,42.805,6.029,4330,1995,195.746,59.860,13.286
2017-12-09T09:57:41,42.805,6.029,4330,1995,195.803,59.878,13.287
2017-12-09T10:00:41,42.805,6.029,4330,1995,195.917,59.912,13.286
2017-12-09T10:03:41,42.805,6.029,4330,1995,196.004,59.939,13.286
2017-12-09T10:06:41,42.805,6.029,4330,1995,196.023,59.945,13.287
2017-12-09T10:09:41,42.805,6.029,4330,1995,195.985,59.933,13.287
2017-12-09T10:12:41,42.805,6.029,4330,1995,195.965,59.927,13.287
2017-12-09T10:15:41,42.805,6.029,4330,1995,195.895,59.906,13.287
2017-12-09T10:18:41,42.805,6.029,4330,1995,195.867,59.897,13.287
2017-12-09T10:21:41,42.805,6.029,4330,1995,195.809,59.881,13.288
2017-12-09T10:24:41,42.805,6.029,4330,1995,196.014,59.942,13.286
2017-12-09T10:27:41,42.805,6.029,4330,1995,196.046,59.952,13.287
2017-12-09T10:30:41,42.805,6.029,4330,1995,195.994,59.937,13.287
2017-12-09T10:33:41,42.805,6.029,4330,1995,196.013,59.942,13.287
2017-12-09T10:36:41,42.805,6.029,4330,1995,195.904,59.909,13.287
2017-12-09T10:39:41,42.805,6.029,4330,1995,195.856,59.895,13.288
2017-12-09T10:42:41,42.805,6.029,4330,1995,195.938,59.919,13.287
2017-12-09T10:45:41,42.805,6.029,4330,1995,195.871,59.899,13.287
2017-12-09T10:48:41,42.805,6.029,4330,1995,195.820,59.883,13.287
2017-12-09T10:51:41,42.805,6.029,4330,1995,195.862,59.896,13.287
2017-12-09T10:54:41,42.805,6.029,4330,1995,195.966,59.928,13.287
2017-12-09T10:57:41,42.805,6.029,4330,1995,196.031,59.947,13.286
2017-12-09T11:00:41,42.805,6.029,4330,1995,195.998,59.938,13.287
2017-12-09T11:03:41,42.805,6.029,4330,1995,195.904,59.909,13.287
2017-12-09T11:06:41,42.805,6.029,4330,1995,195.828,59.885,13.287
2017-12-09T11:09:41,42.805,6.029,4330,1995,195.913,59.912,13.287
2017-12-09T11:12:41,42.805,6.029,4330,1995,195.950,59.922,13.286
2017-12-09T11:15:41,42.805,6.029,4330,1995,196.028,59.946,13.286
2017-12-09T11:18:41,42.805,6.029,4330,1995,196.035,59.948,13.287
2017-12-09T11:21:41,42.805,6.029,4330,1995,196.112,59.971,13.286
2017-12-09T11:24:41,42.805,6.029,4330,1995,196.112,59.971,13.286
2017-12-09T11:27:41,42.805,6.029,4330,1995,196.098,59.967,13.286
2017-12-09T11:30:41,42.805,6.029,4330,1995,196.126,59.976,13.287
2017-12-09T11:33:41,42.805,6.029,4330,1995,196.059,59.955,13.286
2017-12-09T11:36:41,42.805,6.029,4330,1995,196.064,59.957,13.286
2017-12-09T11:39:41,42.805,6.029,4330,1995,196.106,59.969,13.286
2017-12-09T11:42:41,42.805,6.029,4330,1995,196.035,59.948,13.286
2017-12-09T11:45:41,42.805,6.029,4330,1995,195.783,59.872,13.287
2017-12-09T11:48:41,42.805,6.029,4330,1995,195.549,59.800,13.287
2017-12-09T11:51:41,42.805,6.029,4330,1995,195.333,59.735,13.287
2017-12-09T11:54:41,42.805,6.029,4330,1995,195.121,59.669,13.287
2017-12-09T11:57:41,42.805,6.029,4330,1995,195.180,59.687,13.287
2017-12-09T12:00:41,42.805,6.029,4330,1995,195.234,59.704,13.287
2017-12-09T12:03:41,42.805,6.029,4330,1995,195.268,59.715,13.287
2017-12-09T12:06:41,42.805,6.029,4330,1995,195.227,59.702,13.287
2017-12-09T12:09:41,42.805,6.029,4330,1995,195.260,59.712,13.287
2017-12-09T12:12:41,42.805,6.029,4330,1995,195.421,59.761,13.287
2017-12-09T12:15:41,42.805,6.029,4330,1995,195.615,59.820,13.287
2017-12-09T12:18:41,42.805,6.029,4330,1995,195.558,59.803,13.287
2017-12-09T12:21:41,42.805,6.029,4330,1995,195.662,59.834,13.287
2017-12-09T12:24:41,42.805,6.029,4330,1995,195.632,59.825,13.287
2017-12-09T12:27:41,42.805,6.029,4330,1995,195.563,59.805,13.287
2017-12-09T12:30:41,42.805,6.029,4330,1995,195.638,59.828,13.287
2017-12-09T12:33:41,42.805,6.029,4330,1995,195.601,59.815,13.286
2017-12-09T12:36:41,42.805,6.029,4330,1995,195.693,59.844,13.287
2017-12-09T12:39:41,42.805,6.029,4330,1995,195.902,59.908,13.287
2017-12-09T12:42:41,42.805,6.029,4330,1995,196.000,59.938,13.287
2017-12-09T12:45:41,42.805,6.029,4330,1995,195.972,59.929,13.287
2017-12-09T12:48:41,42.805,6.029,4330,1995,196.069,59.960,13.288
2017-12-09T12:51:41,42.805,6.029,4330,1995,196.021,59.944,13.287
2017-12-09T12:54:41,42.805,6.029,4330,1995,196.009,59.941,13.287
2017-12-09T12:57:41,42.805,6.029,4330,1995,195.998,59.938,13.287
2017-12-09T13:00:41,42.805,6.029,4330,1995,196.053,59.955,13.287
2017-12-09T13:03:41,42.805,6.029,4330,1995,195.913,59.913,13.288
2017-12-09T13:06:41,42.805,6.029,4330,1995,195.975,59.932,13.288
2017-12-09T13:09:41,42.805,6.029,4330,1995,195.892,59.905,13.287
2017-12-09T13:12:41,42.805,6.029,4330,1995,195.830,59.889,13.289
2017-12-09T13:15:41,42.805,6.029,4330,1995,195.810,59.881,13.288
2017-12-09T13:18:41,42.805,6.029,4330,1995,195.833,59.889,13.288
2017-12-09T13:21:41,42.805,6.029,4330,1995,195.707,59.849,13.288
2017-12-09T13:24:41,42.805,6.029,4330,1995,195.664,59.837,13.289
2017-12-09T13:27:41,42.805,6.029,4330,1995,195.634,59.827,13.288
2017-12-09T13:30:41,42.805,6.029,4330,1995,195.700,59.847,13.287
2017-12-09T13:33:41,42.805,6.029,4330,1995,195.640,59.829,13.287
2017-12-09T13:36:41,42.805,6.029,4330,1995,195.663,59.835,13.287
2017-12-09T13:39:41,42.805,6.029,4330,1995,195.658,59.834,13.287
2017-12-09T13:42:41,42.805,6.029,4330,1995,195.558,59.804,13.288
2017-12-09T13:45:41,42.805,6.029,4330,1995,195.546,59.800,13.288
2017-12-09T13:48:41,42.805,6.029,4330,1995,195.490,59.783,13.287
2017-12-09T13:51:41,42.805,6.029,4330,1995,195.549,59.801,13.288
2017-12-09T13:54:41,42.805,6.029,4330,1995,195.600,59.816,13.287
2017-12-09T13:57:41,42.805,6.029,4330,1995,195.593,59.814,13.287
2017-12-09T14:00:41,42.805,6.029,4330,1995,195.577,59.809,13.287
2017-12-09T14:03:41,42.805,6.029,4330,1995,195.537,59.796,13.286
2017-12-09T14:06:41,42.805,6.029,4330,1995,195.539,59.797,13.287
2017-12-09T14:09:41,42.805,6.029,4330,1995,195.806,59.878,13.287
2017-12-09T14:12:41,42.805,6.029,4330,1995,195.755,59.863,13.287
2017-12-09T14:15:41,42.805,6.029,4330,1995,195.701,59.846,13.287
2017-12-09T14:18:41,42.805,6.029,4330,1995,195.702,59.846,13.286
2017-12-09T14:21:41,42.805,6.029,4330,1995,195.606,59.818,13.287
2017-12-09T14:24:41,42.805,6.029,4330,1995,195.527,59.793,13.287
2017-12-09T14:27:41,42.805,6.029,4330,1995,195.726,59.855,13.288
2017-12-09T14:30:41,42.805,6.029,4330,1995,195.804,59.878,13.287
2017-12-09T14:33:41,42.805,6.029,4330,1995,195.732,59.856,13.287
2017-12-09T14:36:41,42.805,6.029,4330,1995,195.990,59.934,13.286
2017-12-09T14:39:41,42.805,6.029,4330,1995,196.105,59.971,13.287
2017-12-09T14:42:41,42.805,6.029,4330,1995,196.187,59.994,13.286
2017-12-09T14:45:41,42.805,6.029,4330,1995,196.250,60.016,13.288
2017-12-09T14:48:41,42.805,6.029,4330,1995,196.248,60.013,13.286
2017-12-09T14:51:41,42.805,6.029,4330,1995,196.354,60.048,13.288
2017-12-09T14:54:41,42.805,6.029,4330,1995,196.361,60.048,13.287
2017-12-09T14:57:41,42.805,6.029,4330,1995,196.605,60.123,13.287
2017-12-09T15:00:41,42.805,6.029,4330,1995,196.523,60.099,13.288
2017-12-09T15:03:41,42.805,6.029,4330,1995,196.546,60.105,13.287
2017-12-09T15:06:41,42.805,6.029,4330,1995,196.673,60.144,13.287
2017-12-09T15:09:41,42.805,6.029,4330,1995,196.735,60.163,13.287
2017-12-09T15:12:41,42.805,6.029,4330,1995,196.873,60.205,13.287
2017-12-09T15:15:41,42.805,6.029,4330,1995,196.964,60.232,13.286
2017-12-09T15:18:41,42.805,6.029,4330,1995,197.012,60.247,13.286
2017-12-09T15:21:41,42.805,6.029,4330,1995,196.976,60.236,13.287
2017-12-09T15:24:41,42.805,6.029,4330,1995,197.049,60.258,13.286
2017-12-09T15:27:41,42.805,6.029,4330,1995,196.998,60.244,13.288
2017-12-09T15:30:41,42.805,6.029,4330,1995,196.991,60.240,13.286
2017-12-09T15:33:41,42.805,6.029,4330,1995,197.037,60.254,13.286
2017-12-09T15:36:41,42.805,6.029,4330,1995,197.031,60.253,13.286
2017-12-09T15:39:41,42.805,6.029,4330,1995,197.071,60.264,13.286
2017-12-09T15:42:41,42.805,6.029,4330,1995,197.037,60.255,13.286
2017-12-09T15:45:41,42.805,6.029,4330,1995,196.959,60.232,13.287
2017-12-09T15:48:41,42.805,6.029,4330,1995,197.046,60.258,13.287
2017-12-09T15:51:41,42.805,6.029,4330,1995,197.109,60.276,13.286
2017-12-09T15:54:41,42.805,6.029,4330,1995,197.004,60.244,13.286
2017-12-09T15:57:41,42.805,6.029,4330,1995,197.002,60.245,13.287
2017-12-09T16:00:41,42.805,6.029,4330,1995,197.160,60.292,13.286
2017-12-09T16:03:41,42.805,6.029,4330,1995,197.096,60.273,13.287
2017-12-09T16:06:41,42.805,6.029,4330,1995,197.115,60.278,13.286
2017-12-09T16:09:41,42.805,6.029,4330,1995,196.823,60.193,13.289
2017-12-09T16:12:41,42.805,6.029,4330,1995,196.821,60.188,13.286
2017-12-09T16:15:41,42.805,6.029,4330,1995,196.946,60.226,13.286
2017-12-09T16:18:41,42.805,6.029,4330,1995,196.869,60.203,13.286
2017-12-09T16:21:41,42.805,6.029,4330,1995,196.782,60.176,13.286
2017-12-09T16:24:41,42.805,6.029,4330,1995,196.834,60.192,13.286
2017-12-09T16:27:41,42.805,6.029,4330,1995,196.723,60.158,13.286
2017-12-09T16:30:41,42.805,6.029,4330,1995,196.761,60.169,13.286
2017-12-09T16:33:41,42.805,6.029,4330,1995,196.592,60.118,13.286
2017-12-09T16:36:41,42.805,6.029,4330,1995,196.672,60.142,13.286
2017-12-09T16:39:40,42.805,6.029,4330,1995,196.565,60.110,13.286
2017-12-09T16:42:40,42.805,6.029,4330,1995,196.534,60.101,13.287
2017-12-09T16:45:40,42.805,6.029,4330,1995,196.500,60.090,13.286
2017-12-09T16:48:40,42.805,6.029,4330,1995,196.472,60.082,13.286
2017-12-09T16:51:40,42.805,6.029,4330,1995,196.369,60.052,13.288
2017-12-09T16:54:40,42.805,6.029,4330,1995,196.374,60.052,13.286
2017-12-09T16:57:40,42.805,6.029,4330,1995,196.336,60.040,13.286
2017-12-09T17:00:40,42.805,6.029,4330,1995,196.318,60.034,13.286
2017-12-09T17:03:40,42.805,6.029,4330,1995,196.260,60.017,13.286
2017-12-09T17:06:40,42.805,6.029,4330,1995,196.166,59.989,13.287
2017-12-09T17:09:40,42.805,6.029,4330,1995,196.057,59.955,13.286
2017-12-09T17:12:40,42.805,6.029,4330,1995,196.125,59.975,13.286
2017-12-09T17:15:40,42.805,6.029,4330,1995,196.088,59.964,13.286
2017-12-09T17:18:40,42.805,6.029,4330,1995,196.225,60.006,13.286
2017-12-09T17:21:40,42.805,6.029,4330,1995,196.093,59.965,13.286
2017-12-09T17:24:40,42.805,6.029,4330,1995,195.956,59.924,13.286
2017-12-09T17:27:40,42.805,6.029,4330,1995,195.908,59.909,13.286
2017-12-09T17:30:40,42.805,6.029,4330,1995,195.845,59.890,13.287
2017-12-09T17:33:40,42.805,6.029,4330,1995,195.975,59.930,13.286
2017-12-09T17:36:40,42.805,6.029,4330,1995,195.938,59.918,13.286
2017-12-09T17:39:40,42.805,6.029,4330,1995,196.097,59.967,13.286
2017-12-09T17:42:40,42.805,6.029,4330,1995,196.155,59.985,13.286
2017-12-09T17:45:40,42.805,6.029,4330,1995,196.144,59.982,13.286
2017-12-09T17:48:40,42.805,6.029,4330,1995,196.082,59.962,13.286
2017-12-09T17:51:40,42.805,6.029,4330,1995,196.151,59.984,13.286
2017-12-09T17:54:40,42.805,6.029,4330,1995,196.152,59.984,13.286
2017-12-09T17:57:40,42.805,6.029,4330,1995,196.258,60.016,13.286
2017-12-09T18:00:40,42.805,6.029,4330,1995,196.283,60.023,13.286
2017-12-09T18:03:40,42.805,6.029,4330,1995,196.370,60.050,13.286
2017-12-09T18:06:40,42.805,6.029,4330,1995,196.397,60.058,13.286